Tracking 19489 objects as of 22-Jan-2019
HD Live streaming from Space Station
objects crossing your sky now

SBS 2

Track SBS 2 now!
SBS 2 is classified as:


NORAD ID: 12855
Int'l Code: 1981-096A
Perigee: 35,824.6 km
Apogee: 35,840.3 km
Inclination: 14.2 °
Period: 1,438.1 minutes
Semi major axis: 42203 km
RCS: 7.6855 m2 (large)
Launch date: September 24, 1981
Source: United States (US)
Launch site: AIR FORCE EASTERN TEST RANGE (AFETR)
aabbcc
Your satellite tracking list
Your tracking list is empty




NASA's NSSDC Master Catalog

Two Line Element Set (TLE):
1 12855U 81096A   19021.77647125 -.00000301  00000-0  00000+0 0  9991
2 12855  14.1716 344.0654 0001857 261.7605  97.4049  1.00133952 91497
Source of the keplerian elements: AFSPC